TimeEST,TemperatureF,Dew PointF,Humidity,Sea Level PressureIn,VisibilityMPH,Wind Direction,Wind SpeedMPH,Gust SpeedMPH,PrecipitationIn,Events,Conditions,WindDirDegrees,DateUTC
12:15 AM,42.8,26.6,53,29.86,10.0,Calm,Calm,-,N/A,,Overcast,0,2013-02-13 05:15:00
12:35 AM,42.8,26.6,53,29.86,10.0,Calm,Calm,-,N/A,,Overcast,0,2013-02-13 05:35:00
12:55 AM,42.8,28.4,57,29.84,10.0,Calm,Calm,-,N/A,,Overcast,0,2013-02-13 05:55:00
1:15 AM,42.8,28.4,57,29.84,10.0,SE,3.5,-,N/A,,Overcast,140,2013-02-13 06:15:00
1:35 AM,42.8,30.2,61,29.83,10.0,Calm,Calm,-,N/A,,Overcast,0,2013-02-13 06:35:00
1:55 AM,42.8,30.2,61,29.83,10.0,SSE,4.6,-,N/A,,Overcast,160,2013-02-13 06:55:00
2:15 AM,41.0,30.2,65,29.83,10.0,SE,3.5,-,N/A,,Overcast,140,2013-02-13 07:15:00
2:35 AM,41.0,32.0,70,29.81,10.0,South,4.6,-,N/A,,Overcast,170,2013-02-13 07:35:00
2:55 AM,41.0,32.0,70,29.81,10.0,SSW,4.6,-,N/A,,Overcast,200,2013-02-13 07:55:00
3:15 AM,41.0,32.0,70,29.79,10.0,Calm,Calm,-,N/A,,Overcast,0,2013-02-13 08:15:00
3:35 AM,41.0,32.0,70,29.78,10.0,Calm,Calm,-,N/A,,Overcast,0,2013-02-13 08:35:00
3:55 AM,41.0,32.0,70,29.77,10.0,Calm,Calm,-,N/A,,Overcast,0,2013-02-13 08:55:00
4:15 AM,41.0,32.0,70,29.77,10.0,Calm,Calm,-,N/A,,Overcast,0,2013-02-13 09:15:00
4:35 AM,41.0,32.0,70,29.75,10.0,NE,3.5,-,N/A,,Overcast,40,2013-02-13 09:35:00
4:55 AM,41.0,32.0,70,29.74,10.0,Calm,Calm,-,N/A,,Overcast,0,2013-02-13 09:55:00
5:15 AM,41.0,32.0,70,29.73,10.0,Calm,Calm,-,N/A,,Overcast,0,2013-02-13 10:15:00
5:35 AM,41.0,32.0,70,29.73,10.0,Calm,Calm,-,N/A,,Overcast,0,2013-02-13 10:35:00
5:55 AM,41.0,32.0,70,29.71,10.0,Calm,Calm,-,N/A,Rain,Light Rain,0,2013-02-13 10:55:00
6:15 AM,41.0,33.8,76,29.72,10.0,Calm,Calm,-,N/A,Rain,Light Rain,0,2013-02-13 11:15:00
6:35 AM,39.2,35.6,87,29.70,7.0,Calm,Calm,-,N/A,Rain,Light Rain,0,2013-02-13 11:35:00
6:55 AM,37.4,35.6,93,29.69,10.0,Calm,Calm,-,N/A,Rain,Light Rain,0,2013-02-13 11:55:00
7:15 AM,37.4,37.4,100,29.68,10.0,Calm,Calm,-,0.01,Rain,Light Rain,0,2013-02-13 12:15:00
7:35 AM,37.4,37.4,100,29.67,10.0,Calm,Calm,-,0.01,Rain,Light Rain,0,2013-02-13 12:35:00
7:55 AM,39.2,35.6,87,29.67,7.0,Calm,Calm,-,0.01,Rain,Light Rain,0,2013-02-13 12:55:00
8:15 AM,37.4,35.6,93,29.67,4.0,Calm,Calm,-,0.01,Rain,Rain,0,2013-02-13 13:15:00
8:35 AM,37.4,37.4,100,29.66,3.0,Calm,Calm,-,0.03,Rain,Light Rain,0,2013-02-13 13:35:00
8:55 AM,37.4,37.4,100,29.66,5.0,Calm,Calm,-,0.03,,Overcast,0,2013-02-13 13:55:00
9:15 AM,37.4,37.4,100,29.64,7.0,Calm,Calm,-,N/A,,Overcast,0,2013-02-13 14:15:00
9:35 AM,39.2,39.2,100,29.63,7.0,South,5.8,-,N/A,Rain,Light Rain,170,2013-02-13 14:35:00
9:55 AM,41.0,41.0,100,29.64,5.0,South,5.8,-,0.01,Rain,Light Rain,180,2013-02-13 14:55:00
10:15 AM,41.0,41.0,100,29.64,4.0,Calm,Calm,-,N/A,,Overcast,0,2013-02-13 15:15:00
10:35 AM,41.0,41.0,100,29.65,1.5,WSW,3.5,-,N/A,,Overcast,250,2013-02-13 15:35:00
10:55 AM,41.0,41.0,100,29.64,1.8,Calm,Calm,-,0.01,Rain,Light Rain,0,2013-02-13 15:55:00
11:15 AM,41.0,41.0,100,29.64,2.0,NW,4.6,-,0.01,Rain,Light Rain,310,2013-02-13 16:15:00
11:35 AM,39.2,39.2,100,29.65,0.5,NNW,6.9,-,0.02,Rain,Light Rain,330,2013-02-13 16:35:00
11:55 AM,37.4,37.4,100,29.65,1.8,NNW,4.6,-,0.02,Rain,Light Rain,330,2013-02-13 16:55:00
12:15 PM,37.4,37.4,100,29.64,2.5,NNW,6.9,-,0.01,Rain,Light Rain,330,2013-02-13 17:15:00
12:35 PM,37.4,37.4,100,29.63,3.0,NNW,5.8,-,0.01,,Overcast,340,2013-02-13 17:35:00
12:55 PM,35.6,35.6,100,29.63,2.5,North,5.8,-,0.02,Rain,Light Rain,360,2013-02-13 17:55:00
1:15 PM,35.6,35.6,100,29.62,7.0,Calm,Calm,-,N/A,,Overcast,0,2013-02-13 18:15:00
1:35 PM,37.4,37.4,100,29.61,10.0,Calm,Calm,-,N/A,,Overcast,0,2013-02-13 18:35:00
1:55 PM,35.6,35.6,100,29.62,3.0,NNW,5.8,-,0.01,Rain,Light Rain,330,2013-02-13 18:55:00
2:15 PM,35.6,35.6,100,29.63,2.5,NNW,8.1,-,0.01,Rain,Light Rain,330,2013-02-13 19:15:00
2:35 PM,33.8,33.8,100,29.64,5.0,NW,9.2,-,0.01,Rain,Light Rain,320,2013-02-13 19:35:00
2:55 PM,33.8,33.8,100,29.66,2.5,WNW,9.2,-,0.01,Rain,Light Rain,300,2013-02-13 19:55:00
3:15 PM,33.8,33.8,100,29.67,7.0,WNW,8.1,-,N/A,,Overcast,290,2013-02-13 20:15:00
3:35 PM,35.6,35.6,100,29.69,7.0,WNW,9.2,-,N/A,Snow,Light Snow,290,2013-02-13 20:35:00
3:55 PM,35.6,35.6,100,29.69,10.0,WNW,8.1,19.6,N/A,,Overcast,300,2013-02-13 20:55:00
4:15 PM,35.6,35.6,100,29.70,7.0,WNW,10.4,18.4,N/A,,Overcast,300,2013-02-13 21:15:00
4:55 PM,33.8,33.8,100,29.74,10.0,NW,13.8,21.9,N/A,,Overcast,310,2013-02-13 21:55:00
5:15 PM,32.0,32.0,100,29.75,7.0,NW,13.8,20.7,N/A,,Overcast,320,2013-02-13 22:15:00
5:35 PM,32.0,32.0,100,29.75,5.0,WNW,9.2,-,N/A,,Overcast,300,2013-02-13 22:35:00
5:55 PM,32.0,32.0,100,29.76,10.0,NW,8.1,-,N/A,,Overcast,310,2013-02-13 22:55:00
6:15 PM,32.0,32.0,100,29.77,10.0,NW,8.1,-,N/A,,Overcast,310,2013-02-13 23:15:00
6:35 PM,32.0,32.0,100,29.79,10.0,WNW,9.2,-,N/A,,Overcast,290,2013-02-13 23:35:00
6:55 PM,32.0,32.0,100,29.81,10.0,WNW,11.5,-,N/A,,Overcast,300,2013-02-13 23:55:00
7:15 PM,32.0,32.0,100,29.82,10.0,WNW,9.2,-,N/A,,Overcast,300,2013-02-14 00:15:00
7:35 PM,32.0,32.0,100,29.83,10.0,WNW,6.9,-,N/A,,Overcast,290,2013-02-14 00:35:00
7:55 PM,32.0,32.0,100,29.84,4.0,WNW,4.6,-,N/A,,Overcast,290,2013-02-14 00:55:00
8:15 PM,32.0,32.0,100,29.84,4.0,WNW,5.8,-,N/A,,Overcast,290,2013-02-14 01:15:00
8:35 PM,32.0,32.0,100,29.84,7.0,WSW,5.8,-,N/A,,Overcast,250,2013-02-14 01:35:00
8:55 PM,32.0,32.0,100,29.85,10.0,WNW,9.2,-,N/A,,Overcast,290,2013-02-14 01:55:00
9:15 PM,32.0,32.0,100,29.85,7.0,West,6.9,-,N/A,,Overcast,280,2013-02-14 02:15:00
9:35 PM,32.0,32.0,100,29.86,5.0,West,6.9,-,N/A,,Overcast,270,2013-02-14 02:35:00
9:55 PM,32.0,32.0,100,29.87,7.0,WNW,5.8,-,N/A,,Overcast,290,2013-02-14 02:55:00
10:15 PM,32.0,32.0,100,29.87,7.0,WNW,5.8,-,N/A,,Overcast,290,2013-02-14 03:15:00
10:35 PM,32.0,32.0,100,29.88,5.0,WNW,5.8,-,N/A,,Overcast,290,2013-02-14 03:35:00
10:55 PM,32.0,32.0,100,29.88,7.0,WSW,5.8,-,N/A,,Overcast,250,2013-02-14 03:55:00
11:15 PM,32.0,32.0,100,29.89,10.0,WNW,6.9,-,N/A,,Overcast,290,2013-02-14 04:15:00
11:35 PM,32.0,32.0,100,29.90,7.0,West,4.6,-,N/A,,Overcast,280,2013-02-14 04:35:00
11:55 PM,32.0,32.0,100,29.90,10.0,West,4.6,-,N/A,,Overcast,280,2013-02-14 04:55:00